| time (UTC) | temp C | wind direction | speed KPH | gust KPH | rain 1hr cm | rain 24hr cm | rain mn cm | humidity % | barometer mb |
| 20260507071809 | 7 | 89 | 0.0 | 4.8 | 0.00 | 0.00 | 0.00 | 99 | 1013.7 |
| 20260507071305 | 7 | 40 | 0.0 | 4.8 | 0.00 | 0.00 | 0.00 | 99 | 1013.4 |
| 20260507070802 | 7 | 42 | 0.0 | 6.4 | 0.00 | 0.00 | 0.00 | 99 | 1013.5 |
| 20260507070259 | 7 | 88 | 1.6 | 3.2 | 0.00 | 0.00 | 0.00 | 99 | 1013.7 |
| 20260507065756 | 8 | 50 | 0.0 | 4.8 | 0.00 | 0.00 | 0.00 | 99 | 1013.5 |
| 20260507065252 | 8 | 50 | 0.0 | 3.2 | 0.00 | 0.00 | 0.00 | 99 | 1013.7 |
| 20260507064750 | 7 | 129 | 0.0 | 3.2 | 0.00 | 0.00 | 0.00 | 99 | 1013.7 |
| 20260507064249 | 8 | 89 | 0.0 | 3.2 | 0.00 | 0.00 | 0.00 | 99 | 1013.7 |
| 20260507063746 | 8 | 163 | 0.0 | 3.2 | 0.00 | 0.00 | 0.00 | 99 | 1013.6 |
| 20260507063242 | 8 | 164 | 0.0 | 3.2 | 0.00 | 0.00 | 0.00 | 99 | 1013.6 |
| 20260507062739 | 8 | 66 | 3.2 | 4.8 | 0.00 | 0.00 | 0.00 | 99 | 1013.4 |
| 20260507062237 | 8 | 72 | 3.2 | 3.2 | 0.00 | 0.00 | 0.00 | 99 | 1013.3 |
| 20260507061735 | 8 | 130 | 0.0 | 1.6 | 0.00 | 0.00 | 0.00 | 99 | 1013.5 |
| 20260507061232 | 8 | 54 | 3.2 | 4.8 | 0.00 | 0.00 | 0.00 | 99 | 1013.4 |
| 20260507060730 | 8 | 0 | 0.0 | 3.2 | 0.00 | 0.00 | 0.00 | 99 | 1013.1 |
| 20260507060227 | 8 | 9 | 1.6 | 4.8 | 0.00 | 0.00 | 0.00 | 99 | 1013.2 |
| 20260507055723 | 8 | 117 | 0.0 | 3.2 | 0.00 | 0.00 | 0.00 | 99 | 1013.2 |
| 20260507055218 | 8 | 129 | 0.0 | 3.2 | 0.00 | 0.00 | 0.00 | 99 | 1013.4 |
| 20260507054714 | 8 | 71 | 4.8 | 4.8 | 0.00 | 0.00 | 0.00 | 99 | 1013.2 |
| 20260507054212 | 8 | 98 | 3.2 | 4.8 | 0.00 | 0.00 | 0.00 | 99 | 1013.1 |
| 20260507053709 | 8 | 164 | 0.0 | 4.8 | 0.00 | 0.00 | 0.00 | 99 | 1012.9 |
| 20260507053207 | 8 | 228 | 0.0 | 3.2 | 0.00 | 0.00 | 0.00 | 99 | 1012.9 |
| 20260507052706 | 8 | 84 | 1.6 | 4.8 | 0.00 | 0.00 | 0.00 | 99 | 1013.2 |
| 20260507052201 | 8 | 103 | 3.2 | 4.8 | 0.00 | 0.00 | 0.00 | 99 | 1012.8 |
| 20260507051659 | 8 | 99 | 3.2 | 4.8 | 0.00 | 0.00 | 0.00 | 99 | 1013.2 |
| 20260507051155 | 8 | 336 | 0.0 | 3.2 | 0.00 | 0.00 | 0.00 | 99 | 1012.9 |
| 20260507050652 | 8 | 104 | 0.0 | 3.2 | 0.00 | 0.00 | 0.00 | 99 | 1013.1 |
| 20260507050149 | 8 | 18 | 0.0 | 3.2 | 0.00 | 0.00 | 0.00 | 99 | 1012.9 |
| 20260507045646 | 8 | 53 | 0.0 | 3.2 | 0.00 | 0.00 | 0.00 | 99 | 1012.9 |
| 20260507045143 | 8 | 75 | 3.2 | 6.4 | 0.00 | 0.00 | 0.00 | 99 | 1013.0 |
| 20260507044640 | 8 | 201 | 3.2 | 3.2 | 0.00 | 0.00 | 0.00 | 99 | 1012.9 |
| 20260507044137 | 8 | 91 | 3.2 | 4.8 | 0.00 | 0.00 | 0.00 | 99 | 1013.0 |
| 20260507043633 | 8 | 129 | 0.0 | 3.2 | 0.00 | 0.00 | 0.00 | 99 | 1012.9 |
| 20260507043130 | 8 | 38 | 0.0 | 3.2 | 0.00 | 0.00 | 0.00 | 99 | 1013.1 |
| 20260507042626 | 8 | 167 | 1.6 | 3.2 | 0.00 | 0.00 | 0.00 | 99 | 1013.1 |
| 20260507042121 | 8 | 54 | 1.6 | 4.8 | 0.00 | 0.00 | 0.00 | 99 | 1013.1 |
| 20260507041618 | 8 | 57 | 0.0 | 3.2 | 0.00 | 0.00 | 0.00 | 99 | 1013.0 |
| 20260507041115 | 8 | 341 | 0.0 | 3.2 | 0.00 | 0.00 | 0.00 | 99 | 1013.0 |
| 20260507040612 | 8 | 263 | 0.0 | 3.2 | 0.00 | 0.00 | 0.00 | 99 | 1013.5 |
| 20260507040108 | 8 | 56 | 0.0 | 3.2 | 0.00 | 0.00 | 0.00 | 99 | 1013.6 |
| 20260507035604 | 8 | 53 | 1.6 | 4.8 | 0.00 | 0.00 | 0.00 | 99 | 1013.4 |
| 20260507035100 | 8 | 106 | 0.0 | 3.2 | 0.00 | 0.00 | 0.00 | 99 | 1013.4 |
| 20260507034557 | 8 | 103 | 3.2 | 3.2 | 0.00 | 0.00 | 0.00 | 99 | 1013.3 |
| 20260507034055 | 8 | 142 | 0.0 | 3.2 | 0.00 | 0.00 | 0.00 | 99 | 1013.3 |
| 20260507033553 | 8 | 51 | 3.2 | 4.8 | 0.00 | 0.00 | 0.00 | 99 | 1013.1 |
| 20260507033050 | 8 | 88 | 3.2 | 4.8 | 0.00 | 0.00 | 0.00 | 99 | 1013.6 |
| 20260507032547 | 8 | 97 | 0.0 | 3.2 | 0.00 | 0.00 | 0.00 | 98 | 1013.2 |
| 20260507032043 | 9 | 71 | 0.0 | 3.2 | 0.00 | 0.00 | 0.00 | 98 | 1013.0 |
| 20260507031540 | 9 | 63 | 4.8 | 4.8 | 0.00 | 0.00 | 0.00 | 98 | 1012.8 |
| 20260507031037 | 9 | 56 | 3.2 | 4.8 | 0.00 | 0.00 | 0.00 | 97 | 1012.4 |
| 20260507030534 | 9 | 279 | 4.8 | 4.8 | 0.00 | 0.00 | 0.00 | 97 | 1012.8 |
| 20260507030032 | 9 | 345 | 0.0 | 3.2 | 0.00 | 0.00 | 0.00 | 96 | 1013.1 |
| 20260507025528 | 9 | 135 | 0.0 | 4.8 | 0.00 | 0.00 | 0.00 | 95 | 1013.2 |
| 20260507025026 | 9 | 267 | 0.0 | 4.8 | 0.00 | 0.00 | 0.00 | 95 | 1013.0 |
| 20260507024523 | 9 | 276 | 3.2 | 4.8 | 0.00 | 0.00 | 0.00 | 95 | 1013.0 |
| 20260507024020 | 9 | 58 | 1.6 | 3.2 | 0.00 | 0.00 | 0.00 | 95 | 1013.1 |
| 20260507023516 | 9 | 48 | 3.2 | 6.4 | 0.00 | 0.00 | 0.00 | 95 | 1013.4 |
| 20260507023014 | 9 | 69 | 4.8 | 4.8 | 0.00 | 0.00 | 0.00 | 95 | 1013.5 |
| 20260507022510 | 9 | 44 | 0.0 | 3.2 | 0.00 | 0.00 | 0.00 | 94 | 1013.5 |
| 20260507022006 | 9 | 59 | 1.6 | 4.8 | 0.00 | 0.00 | 0.00 | 94 | 1013.6 |
| 20260507021502 | 10 | 69 | 0.0 | 4.8 | 0.00 | 0.00 | 0.00 | 95 | 1013.9 |
| 20260507020959 | 9 | 91 | 3.2 | 4.8 | 0.00 | 0.00 | 0.00 | 95 | 1013.5 |
| 20260507020456 | 9 | 356 | 0.0 | 6.4 | 0.00 | 0.00 | 0.00 | 95 | 1013.7 |
| 20260507015952 | 10 | 49 | 0.0 | 3.2 | 0.00 | 0.00 | 0.00 | 94 | 1013.9 |
| 20260507015451 | 10 | 354 | 0.0 | 3.2 | 0.00 | 0.00 | 0.00 | 95 | 1014.1 |
| 20260507014948 | 10 | 77 | 0.0 | 3.2 | 0.00 | 0.00 | 0.00 | 95 | 1013.7 |
| 20260507014444 | 10 | 291 | 0.0 | 3.2 | 0.00 | 0.00 | 0.00 | 95 | 1013.7 |
| 20260507013940 | 10 | 29 | 1.6 | 3.2 | 0.00 | 0.00 | 0.00 | 95 | 1013.8 |
| 20260507013437 | 10 | 42 | 0.0 | 3.2 | 0.00 | 0.00 | 0.00 | 95 | 1014.2 |
| 20260507012935 | 10 | 37 | 0.0 | 3.2 | 0.00 | 0.00 | 0.00 | 95 | 1014.2 |
| 20260507012431 | 10 | 352 | 0.0 | 4.8 | 0.00 | 0.00 | 0.00 | 94 | 1014.0 |
| 20260507011922 | 10 | 44 | 4.8 | 6.4 | 0.00 | 0.00 | 0.00 | 95 | 1013.8 |
| 20260507011419 | 10 | 4 | 3.2 | 4.8 | 0.00 | 0.00 | 0.00 | 94 | 1013.3 |
| 20260507010913 | 10 | 1 | 3.2 | 8.0 | 0.00 | 0.00 | 0.00 | 93 | 1013.6 |
| 20260507010408 | 10 | 242 | 6.4 | 8.0 | 0.00 | 0.00 | 0.00 | 93 | 1013.3 |
| 20260507005906 | 10 | 19 | 1.6 | 6.4 | 0.00 | 0.00 | 0.00 | 93 | 1013.6 |
| 20260507005403 | 10 | 22 | 3.2 | 11.3 | 0.00 | 0.00 | 0.00 | 92 | 1013.5 |
| 20260507004859 | 10 | 272 | 4.8 | 14.5 | 0.00 | 0.00 | 0.00 | 92 | 1013.4 |
| 20260507004356 | 10 | 2 | 3.2 | 9.7 | 0.00 | 0.00 | 0.00 | 94 | 1013.3 |
| 20260507003853 | 10 | 65 | 3.2 | 6.4 | 0.00 | 0.00 | 0.00 | 94 | 1013.2 |
| 20260507003349 | 10 | 275 | 1.6 | 4.8 | 0.00 | 0.00 | 0.00 | 95 | 1013.3 |
| 20260507002844 | 10 | 265 | 1.6 | 4.8 | 0.00 | 0.00 | 0.00 | 95 | 1013.0 |
| 20260507002340 | 10 | 50 | 0.0 | 3.2 | 0.00 | 0.00 | 0.00 | 95 | 1013.1 |
| 20260507001838 | 10 | 264 | 0.0 | 4.8 | 0.00 | 0.00 | 0.00 | 94 | 1013.0 |
| 20260507001334 | 10 | 12 | 3.2 | 6.4 | 0.00 | 0.00 | 0.00 | 94 | 1012.7 |
| 20260507000831 | 10 | 65 | 6.4 | 12.9 | 0.00 | 0.00 | 0.00 | 94 | 1012.7 |
| 20260507000328 | 10 | 312 | 3.2 | 8.0 | 0.00 | 0.00 | 0.00 | 95 | 1012.4 |
| 20260506235823 | 10 | 306 | 1.6 | 11.3 | 0.00 | 0.00 | 0.00 | 95 | 1012.4 |
| 20260506235320 | 10 | 7 | 4.8 | 9.7 | 0.00 | 0.00 | 0.00 | 95 | 1012.1 |
| 20260506234816 | 10 | 357 | 3.2 | 9.7 | 0.00 | 0.00 | 0.00 | 95 | 1012.5 |
| 20260506234314 | 10 | 29 | 4.8 | 6.4 | 0.00 | 0.00 | 0.00 | 95 | 1012.2 |
| 20260506233811 | 10 | 33 | 4.8 | 8.0 | 0.00 | 0.00 | 0.00 | 95 | 1012.1 |
| 20260506233307 | 10 | 277 | 3.2 | 8.0 | 0.00 | 0.00 | 0.00 | 96 | 1012.2 |
| 20260506232804 | 10 | 56 | 4.8 | 12.9 | 0.00 | 0.00 | 0.00 | 96 | 1012.4 |
| 20260506232259 | 10 | 7 | 8.0 | 12.9 | 0.00 | 0.00 | 0.00 | 95 | 1012.4 |
| 20260506231751 | 10 | 5 | 4.8 | 12.9 | 0.00 | 0.00 | 0.00 | 96 | 1012.1 |
| 20260506231250 | 10 | 296 | 8.0 | 11.3 | 0.00 | 0.00 | 0.00 | 95 | 1012.2 |
| 20260506230746 | 10 | 265 | 4.8 | 12.9 | 0.00 | 0.00 | 0.00 | 95 | 1012.0 |
| 20260506230243 | 10 | 20 | 4.8 | 12.9 | 0.00 | 0.00 | 0.00 | 95 | 1011.8 |
| 20260506225740 | 10 | 309 | 4.8 | 8.0 | 0.00 | 0.00 | 0.00 | 95 | 1011.9 |
| 20260506225237 | 10 | 322 | 6.4 | 11.3 | 0.00 | 0.00 | 0.00 | 95 | 1011.9 |
| 20260506224733 | 11 | 350 | 3.2 | 4.8 | 0.00 | 0.00 | 0.00 | 96 | 1011.6 |
| 20260506224231 | 11 | 81 | 0.0 | 4.8 | 0.00 | 0.00 | 0.00 | 95 | 1011.5 |
| 20260506223727 | 11 | 324 | 4.8 | 11.3 | 0.00 | 0.00 | 0.00 | 95 | 1011.4 |
| 20260506223222 | 10 | 333 | 4.8 | 9.7 | 0.00 | 0.00 | 0.00 | 95 | 1011.4 |
| 20260506222719 | 10 | 280 | 9.7 | 14.5 | 0.00 | 0.00 | 0.00 | 95 | 1011.3 |
| 20260506222214 | 10 | 297 | 1.6 | 14.5 | 0.00 | 0.00 | 0.00 | 96 | 1011.1 |
| 20260506221712 | 10 | 27 | 6.4 | 12.9 | 0.00 | 0.00 | 0.00 | 98 | 1010.8 |
| 20260506221210 | 11 | 3 | 4.8 | 9.7 | 0.00 | 0.00 | 0.00 | 99 | 1010.6 |
| 20260506220707 | 11 | 172 | 3.2 | 25.7 | 0.00 | 0.00 | 0.00 | 97 | 1010.3 |
| 20260506220202 | 11 | 340 | 6.4 | 30.6 | 0.00 | 0.00 | 0.00 | 97 | 1010.1 |
| 20260506215659 | 11 | 277 | 11.3 | 24.1 | 0.00 | 0.00 | 0.00 | 98 | 1009.6 |
| 20260506215154 | 11 | 267 | 19.3 | 25.7 | 0.00 | 0.00 | 0.00 | 98 | 1009.5 |
| 20260506214646 | 11 | 122 | 3.2 | 29.0 | 0.00 | 0.00 | 0.00 | 99 | 1009.4 |
| 20260506214143 | 11 | 193 | 3.2 | 37.0 | 0.00 | 0.00 | 0.00 | 99 | 1009.5 |
| 20260506213642 | 11 | 2 | 8.0 | 25.7 | 0.00 | 0.00 | 0.00 | 99 | 1009.2 |
| 20260506213138 | 11 | 329 | 11.3 | 25.7 | 0.00 | 0.00 | 0.00 | 99 | 1009.2 |
| 20260506212635 | 12 | 290 | 9.7 | 27.4 | 0.00 | 0.00 | 0.00 | 98 | 1008.8 |
| 20260506212130 | 13 | 260 | 25.7 | 48.3 | 0.00 | 0.00 | 0.00 | 95 | 1008.9 |
| 20260506211626 | 16 | 138 | 0.0 | 8.0 | 0.00 | 0.00 | 0.00 | 99 | 1008.4 |
| 20260506211123 | 16 | 146 | 6.4 | 11.3 | 0.00 | 0.00 | 0.00 | 99 | 1008.3 |
| 20260506210620 | 16 | 85 | 8.0 | 9.7 | 0.00 | 0.00 | 0.00 | 99 | 1008.2 |
| 20260506210117 | 16 | 31 | 4.8 | 11.3 | 0.00 | 0.00 | 0.00 | 99 | 1008.1 |
| 20260506205614 | 16 | 75 | 6.4 | 11.3 | 0.00 | 0.00 | 0.00 | 99 | 1008.1 |
| 20260506205114 | 16 | 91 | 6.4 | 12.9 | 0.00 | 0.00 | 0.00 | 99 | 1008.1 |
| 20260506204612 | 16 | 68 | 4.8 | 12.9 | 0.00 | 0.00 | 0.00 | 99 | 1008.2 |
| 20260506204109 | 16 | 333 | 1.6 | 11.3 | 0.00 | 0.00 | 0.00 | 98 | 1008.2 |
| 20260506203607 | 16 | 126 | 3.2 | 9.7 | 0.00 | 0.00 | 0.00 | 98 | 1007.9 |
| 20260506203103 | 16 | 78 | 4.8 | 11.3 | 0.00 | 0.00 | 0.00 | 97 | 1008.1 |
| 20260506202601 | 16 | 61 | 6.4 | 12.9 | 0.00 | 0.00 | 0.00 | 97 | 1007.8 |
| 20260506202057 | 17 | 134 | 12.9 | 24.1 | 0.00 | 0.00 | 0.00 | 96 | 1008.0 |
| 20260506201555 | 16 | 140 | 4.8 | 14.5 | 0.00 | 0.00 | 0.00 | 98 | 1007.9 |
| 20260506201051 | 16 | 189 | 8.0 | 12.9 | 0.00 | 0.00 | 0.00 | 98 | 1008.0 |
| 20260506200547 | 16 | 65 | 3.2 | 6.4 | 0.00 | 0.00 | 0.00 | 99 | 1008.1 |
| 20260506200044 | 16 | 57 | 4.8 | 4.8 | 0.00 | 0.00 | 0.00 | 99 | 1008.1 |
| 20260506195541 | 16 | 119 | 4.8 | 9.7 | 0.00 | 0.00 | 0.00 | 99 | 1007.9 |
| 20260506195037 | 16 | 12 | 0.0 | 8.0 | 0.00 | 0.00 | 0.00 | 99 | 1008.2 |
| 20260506194535 | 16 | 92 | 1.6 | 6.4 | 0.00 | 0.00 | 0.00 | 99 | 1008.3 |
| 20260506194031 | 16 | 89 | 0.0 | 6.4 | 0.00 | 0.00 | 0.00 | 99 | 1008.0 |
| 20260506193529 | 16 | 98 | 0.0 | 4.8 | 0.00 | 0.00 | 0.00 | 99 | 1008.3 |
| 20260506193026 | 16 | 282 | 0.0 | 6.4 | 0.00 | 0.00 | 0.00 | 99 | 1008.3 |
| 20260506192523 | 15 | 86 | 1.6 | 4.8 | 0.00 | 0.00 | 0.00 | 99 | 1008.3 |
| 20260506192018 | 16 | 158 | 3.2 | 4.8 | 0.00 | 0.00 | 0.00 | 99 | 1008.3 |
| 20260506191516 | 16 | 84 | 3.2 | 4.8 | 0.00 | 0.00 | 0.00 | 99 | 1008.4 |
| 20260506191012 | 16 | 9 | 0.0 | 8.0 | 0.00 | 0.00 | 0.00 | 99 | 1008.4 |
| 20260506190509 | 16 | 99 | 4.8 | 8.0 | 0.00 | 0.00 | 0.00 | 99 | 1008.4 |
| 20260506190006 | 15 | 123 | 4.8 | 6.4 | 0.00 | 0.00 | 0.00 | 99 | 1008.4 |
| 20260506185503 | 15 | 131 | 1.6 | 6.4 | 0.00 | 0.00 | 0.00 | 99 | 1008.3 |
| 20260506184959 | 15 | 40 | 1.6 | 4.8 | 0.00 | 0.00 | 0.00 | 99 | 1008.4 |
| 20260506184457 | 15 | 91 | 4.8 | 8.0 | 0.00 | 0.00 | 0.00 | 99 | 1008.6 |
| 20260506183954 | 15 | 96 | 3.2 | 4.8 | 0.00 | 0.00 | 0.00 | 99 | 1008.7 |
| 20260506183449 | 15 | 107 | 1.6 | 9.7 | 0.00 | 0.00 | 0.00 | 99 | 1008.8 |
| 20260506182946 | 15 | 130 | 4.8 | 6.4 | 0.00 | 0.00 | 0.00 | 99 | 1008.6 |
| 20260506182444 | 15 | 143 | 0.0 | 4.8 | 0.00 | 0.00 | 0.00 | 99 | 1008.7 |
| 20260506181941 | 15 | 217 | 1.6 | 8.0 | 0.00 | 0.00 | 0.00 | 99 | 1008.7 |
| 20260506181439 | 15 | 147 | 1.6 | 6.4 | 0.00 | 0.00 | 0.00 | 99 | 1008.8 |
| 20260506180935 | 15 | 86 | 1.6 | 4.8 | 0.00 | 0.00 | 0.00 | 99 | 1008.9 |
| 20260506180432 | 15 | 173 | 1.6 | 4.8 | 0.00 | 0.00 | 0.00 | 99 | 1008.8 |
| 20260506175929 | 15 | 356 | 3.2 | 6.4 | 0.00 | 0.00 | 0.00 | 99 | 1008.8 |
| 20260506175425 | 15 | 122 | 4.8 | 6.4 | 0.00 | 0.00 | 0.00 | 99 | 1008.9 |
| 20260506174922 | 15 | 126 | 1.6 | 6.4 | 0.00 | 0.00 | 0.00 | 99 | 1008.8 |
| 20260506174420 | 15 | 142 | 1.6 | 4.8 | 0.00 | 0.00 | 0.00 | 99 | 1008.8 |
| 20260506173917 | 15 | 18 | 1.6 | 4.8 | 0.00 | 0.00 | 0.00 | 99 | 1008.8 |
| 20260506173414 | 15 | 205 | 0.0 | 4.8 | 0.00 | 0.00 | 0.00 | 99 | 1009.0 |
| 20260506172911 | 15 | 115 | 0.0 | 6.4 | 0.00 | 0.00 | 0.00 | 99 | 1008.9 |
| 20260506172407 | 15 | 145 | 3.2 | 6.4 | 0.00 | 0.00 | 0.00 | 99 | 1008.9 |
| 20260506171859 | 15 | 30 | 0.0 | 6.4 | 0.00 | 0.00 | 0.00 | 99 | 1008.8 |
| 20260506171356 | 15 | 347 | 0.0 | 4.8 | 0.00 | 0.00 | 0.00 | 99 | 1009.0 |
| 20260506170853 | 15 | 64 | 0.0 | 4.8 | 0.00 | 0.00 | 0.00 | 99 | 1009.0 |
| 20260506170349 | 15 | 95 | 1.6 | 3.2 | 0.00 | 0.00 | 0.00 | 99 | 1008.8 |
| 20260506165849 | 15 | 297 | 0.0 | 4.8 | 0.00 | 0.00 | 0.00 | 99 | 1008.9 |
| 20260506165346 | 15 | 75 | 1.6 | 6.4 | 0.00 | 0.00 | 0.00 | 99 | 1008.8 |
| 20260506164842 | 15 | 123 | 0.0 | 4.8 | 0.00 | 0.00 | 0.00 | 99 | 1008.9 |
| 20260506164339 | 15 | 260 | 0.0 | 3.2 | 0.00 | 0.00 | 0.00 | 99 | 1008.7 |
| 20260506163837 | 15 | 103 | 0.0 | 4.8 | 0.00 | 0.00 | 0.00 | 99 | 1008.9 |
| 20260506163331 | 15 | 113 | 0.0 | 6.4 | 0.00 | 0.00 | 0.00 | 99 | 1008.7 |
| 20260506162827 | 15 | 100 | 4.8 | 8.0 | 0.00 | 0.00 | 0.00 | 99 | 1008.9 |
| 20260506162325 | 15 | 103 | 0.0 | 3.2 | 0.00 | 0.00 | 0.00 | 99 | 1008.9 |
| 20260506161823 | 15 | 74 | 0.0 | 8.0 | 0.00 | 0.00 | 0.00 | 99 | 1008.9 |
| 20260506161319 | 15 | 120 | 4.8 | 6.4 | 0.00 | 0.00 | 0.00 | 99 | 1008.8 |
| 20260506160812 | 15 | 326 | 0.0 | 4.8 | 0.00 | 0.00 | 0.00 | 99 | 1008.9 |
| 20260506160308 | 15 | 75 | 0.0 | 6.4 | 0.00 | 0.00 | 0.00 | 99 | 1008.9 |
| 20260506155807 | 15 | 210 | 0.0 | 6.4 | 0.00 | 0.00 | 0.00 | 99 | 1009.0 |
| 20260506155306 | 15 | 76 | 0.0 | 3.2 | 0.00 | 0.00 | 0.00 | 99 | 1008.8 |
| 20260506153415 | 15 | 64 | 4.8 | 4.8 | 0.00 | 0.00 | 0.00 | 99 | 1009.1 |
| 20260506152913 | 15 | 155 | 4.8 | 11.3 | 0.00 | 0.00 | 0.00 | 99 | 1009.2 |
| 20260506152409 | 15 | 261 | 0.0 | 6.4 | 0.00 | 0.00 | 0.00 | 99 | 1009.3 |
| 20260506151908 | 15 | 110 | 0.0 | 6.4 | 0.00 | 0.00 | 0.00 | 99 | 1009.3 |
| 20260506151404 | 15 | 145 | 1.6 | 9.7 | 0.00 | 0.00 | 0.00 | 99 | 1009.4 |
| 20260506150902 | 15 | 118 | 3.2 | 9.7 | 0.00 | 0.00 | 0.00 | 99 | 1009.3 |
| 20260506150358 | 15 | 170 | 1.6 | 6.4 | 0.00 | 0.00 | 0.00 | 99 | 1009.2 |
| 20260506145855 | 15 | 237 | 0.0 | 4.8 | 0.00 | 0.00 | 0.00 | 99 | 1009.1 |
| 20260506145351 | 15 | 128 | 3.2 | 4.8 | 0.00 | 0.00 | 0.00 | 99 | 1009.3 |
| 20260506144849 | 15 | 138 | 3.2 | 4.8 | 0.00 | 0.00 | 0.00 | 99 | 1009.2 |
| 20260506144345 | 15 | 184 | 1.6 | 6.4 | 0.00 | 0.00 | 0.00 | 99 | 1008.9 |
| 20260506143844 | 15 | 114 | 20.9 | 20.9 | 0.00 | 0.00 | 0.00 | 99 | 1009.1 |
| 20260506143341 | 15 | 114 | 20.9 | 20.9 | 0.00 | 0.00 | 0.00 | 99 | 1009.0 |
| 20260506142839 | 15 | 92 | 17.7 | 19.3 | 0.00 | 0.00 | 0.00 | 99 | 1009.2 |
| 20260506142337 | 15 | 85 | 6.4 | 14.5 | 0.00 | 0.00 | 0.00 | 99 | 1009.3 |
| 20260506141835 | 15 | 118 | 14.5 | 20.9 | 0.00 | 0.00 | 0.00 | 99 | 1009.3 |
| 20260506141332 | 15 | 75 | 1.6 | 8.0 | 0.00 | 0.00 | 0.00 | 99 | 1009.3 |
| 20260506140830 | 15 | 98 | 1.6 | 9.7 | 0.00 | 0.00 | 0.00 | 99 | 1009.3 |
| 20260506140327 | 14 | 210 | 3.2 | 6.4 | 0.00 | 0.00 | 0.00 | 99 | 1009.3 |
| 20260506135824 | 14 | 37 | 0.0 | 3.2 | 0.00 | 0.00 | 0.00 | 99 | 1009.3 |
| 20260506135320 | 14 | 208 | 0.0 | 3.2 | 0.00 | 0.00 | 0.00 | 99 | 1009.3 |
| 20260506134817 | 14 | 142 | 0.0 | 6.4 | 0.00 | 0.00 | 0.00 | 99 | 1009.3 |
| 20260506134313 | 15 | 98 | 3.2 | 4.8 | 0.00 | 0.00 | 0.00 | 99 | 1009.6 |
| 20260506133810 | 15 | 110 | 1.6 | 4.8 | 0.00 | 0.00 | 0.00 | 99 | 1009.6 |
| 20260506133307 | 15 | 94 | 1.6 | 6.4 | 0.00 | 0.00 | 0.00 | 99 | 1009.8 |
| 20260506132804 | 15 | 130 | 0.0 | 3.2 | 0.00 | 0.00 | 0.00 | 99 | 1009.8 |
| 20260506132301 | 15 | 59 | 0.0 | 3.2 | 0.00 | 0.00 | 0.00 | 99 | 1009.7 |
| 20260506131759 | 15 | 27 | 1.6 | 3.2 | 0.00 | 0.00 | 0.00 | 99 | 1009.7 |
| 20260506131255 | 15 | 93 | 1.6 | 3.2 | 0.00 | 0.00 | 0.00 | 99 | 1009.8 |
| 20260506130752 | 15 | 93 | 1.6 | 4.8 | 0.00 | 0.00 | 0.00 | 99 | 1010.1 |
| 20260506130249 | 15 | 113 | 3.2 | 6.4 | 0.00 | 0.00 | 0.00 | 98 | 1010.1 |
| 20260506125747 | 15 | 78 | 4.8 | 8.0 | 0.00 | 0.00 | 0.00 | 97 | 1010.2 |
| 20260506125244 | 15 | 114 | 3.2 | 8.0 | 0.00 | 0.00 | 0.00 | 96 | 1010.1 |
| 20260506124743 | 15 | 111 | 4.8 | 12.9 | 0.00 | 0.00 | 0.00 | 94 | 1010.2 |
| 20260506124240 | 15 | 127 | 0.0 | 8.0 | 0.00 | 0.00 | 0.00 | 92 | 1010.1 |
| 20260506123737 | 15 | 89 | 3.2 | 9.7 | 0.00 | 0.00 | 0.00 | 90 | 1009.9 |
| 20260506123236 | 16 | 51 | 1.6 | 9.7 | 0.00 | 0.00 | 0.00 | 89 | 1009.8 |
| 20260506122732 | 16 | 109 | 4.8 | 14.5 | 0.00 | 0.00 | 0.00 | 89 | 1009.9 |
| 20260506122229 | 16 | 5 | 1.6 | 24.1 | 0.00 | 0.00 | 0.00 | 85 | 1009.5 |
| 20260506121728 | 17 | 41 | 1.6 | 16.1 | 0.00 | 0.00 | 0.00 | 82 | 1009.6 |
| 20260506121224 | 17 | 135 | 14.5 | 19.3 | 0.00 | 0.00 | 0.00 | 78 | 1009.4 |
| 20260506120722 | 17 | 95 | 12.9 | 16.1 | 0.00 | 0.00 | 0.00 | 79 | 1009.0 |
| 20260506120219 | 17 | 105 | 6.4 | 17.7 | 0.00 | 0.00 | 0.00 | 79 | 1009.3 |
| 20260506115717 | 18 | 105 | 6.4 | 12.9 | 0.00 | 0.00 | 0.00 | 75 | 1009.3 |
| 20260506115215 | 18 | 75 | 4.8 | 11.3 | 0.00 | 0.00 | 0.00 | 74 | 1009.4 |
| 20260506114712 | 18 | 100 | 4.8 | 20.9 | 0.00 | 0.00 | 0.00 | 72 | 1009.4 |
| 20260506114210 | 18 | 54 | 4.8 | 14.5 | 0.00 | 0.00 | 0.00 | 72 | 1009.4 |
| 20260506113708 | 18 | 51 | 0.0 | 9.7 | 0.00 | 0.00 | 0.00 | 73 | 1009.4 |
| 20260506113205 | 18 | 36 | 3.2 | 12.9 | 0.00 | 0.00 | 0.00 | 72 | 1009.4 |
| 20260506112701 | 18 | 106 | 4.8 | 11.3 | 0.00 | 0.00 | 0.00 | 72 | 1009.4 |
| 20260506112159 | 18 | 62 | 3.2 | 17.7 | 0.00 | 0.00 | 0.00 | 71 | 1009.4 |
| 20260506111656 | 17 | 101 | 6.4 | 12.9 | 0.00 | 0.00 | 0.00 | 73 | 1009.2 |
| 20260506111154 | 17 | 54 | 3.2 | 4.8 | 0.00 | 0.00 | 0.00 | 74 | 1009.2 |
| 20260506110651 | 17 | 96 | 3.2 | 4.8 | 0.00 | 0.00 | 0.00 | 75 | 1009.2 |
| 20260506110149 | 17 | 65 | 6.4 | 6.4 | 0.00 | 0.00 | 0.00 | 74 | 1009.1 |
| 20260506105645 | 17 | 66 | 1.6 | 3.2 | 0.00 | 0.00 | 0.00 | 73 | 1008.9 |
| 20260506105142 | 17 | 86 | 1.6 | 3.2 | 0.00 | 0.00 | 0.00 | 73 | 1009.1 |
| 20260506104640 | 17 | 42 | 0.0 | 3.2 | 0.00 | 0.00 | 0.00 | 72 | 1009.1 |
| 20260506104137 | 17 | 52 | 0.0 | 4.8 | 0.00 | 0.00 | 0.00 | 73 | 1009.0 |
| 20260506103634 | 17 | 233 | 1.6 | 3.2 | 0.00 | 0.00 | 0.00 | 71 | 1009.0 |
| 20260506103131 | 17 | 142 | 0.0 | 3.2 | 0.00 | 0.00 | 0.00 | 70 | 1008.6 |
| 20260506102629 | 17 | 69 | 3.2 | 4.8 | 0.00 | 0.00 | 0.00 | 70 | 1008.6 |
| 20260506102126 | 17 | 121 | 1.6 | 4.8 | 0.00 | 0.00 | 0.00 | 69 | 1008.6 |
| 20260506101623 | 17 | 69 | 3.2 | 4.8 | 0.00 | 0.00 | 0.00 | 69 | 1008.6 |
| 20260506101120 | 17 | 53 | 3.2 | 6.4 | 0.00 | 0.00 | 0.00 | 69 | 1008.6 |
| 20260506100618 | 17 | 128 | 0.0 | 4.8 | 0.00 | 0.00 | 0.00 | 70 | 1008.6 |
| 20260506100116 | 17 | 168 | 0.0 | 9.7 | 0.00 | 0.00 | 0.00 | 69 | 1008.5 |
| 20260506095615 | 16 | 126 | 0.0 | 3.2 | 0.00 | 0.00 | 0.00 | 71 | 1008.6 |
| 20260506095111 | 16 | 126 | 1.6 | 4.8 | 0.00 | 0.00 | 0.00 | 71 | 1008.6 |
| 20260506094608 | 16 | 105 | 1.6 | 3.2 | 0.00 | 0.00 | 0.00 | 74 | 1008.7 |
| 20260506094106 | 16 | 117 | 0.0 | 3.2 | 0.00 | 0.00 | 0.00 | 74 | 1008.9 |
| 20260506093604 | 16 | 72 | 1.6 | 4.8 | 0.00 | 0.00 | 0.00 | 76 | 1008.8 |
| 20260506093101 | 16 | 82 | 1.6 | 4.8 | 0.00 | 0.00 | 0.00 | 75 | 1008.8 |
| 20260506092559 | 16 | 211 | 1.6 | 4.8 | 0.00 | 0.00 | 0.00 | 74 | 1008.8 |
| 20260506092055 | 16 | 117 | 3.2 | 8.0 | 0.00 | 0.00 | 0.00 | 76 | 1008.6 |
| 20260506091554 | 15 | 155 | 0.0 | 6.4 | 0.00 | 0.00 | 0.00 | 79 | 1008.8 |
| 20260506091051 | 15 | 203 | 0.0 | 4.8 | 0.00 | 0.00 | 0.00 | 79 | 1008.8 |
| 20260506090549 | 15 | 354 | 1.6 | 3.2 | 0.00 | 0.00 | 0.00 | 82 | 1008.9 |
| 20260506090045 | 15 | 105 | 3.2 | 4.8 | 0.00 | 0.00 | 0.00 | 82 | 1008.9 |
| 20260506085542 | 15 | 78 | 1.6 | 3.2 | 0.00 | 0.00 | 0.00 | 81 | 1009.0 |
| 20260506085038 | 15 | 104 | 0.0 | 3.2 | 0.00 | 0.00 | 0.00 | 80 | 1008.8 |
| 20260506084535 | 15 | 114 | 1.6 | 4.8 | 0.00 | 0.00 | 0.00 | 79 | 1008.8 |
| 20260506084031 | 15 | 168 | 3.2 | 6.4 | 0.00 | 0.00 | 0.00 | 77 | 1009.0 |
| 20260506083529 | 15 | 75 | 1.6 | 3.2 | 0.00 | 0.00 | 0.00 | 78 | 1008.8 |
| 20260506083026 | 15 | 96 | 4.8 | 4.8 | 0.00 | 0.00 | 0.00 | 78 | 1009.1 |
| 20260506082523 | 15 | 155 | 0.0 | 3.2 | 0.00 | 0.00 | 0.00 | 78 | 1009.1 |
| 20260506082018 | 15 | 54 | 0.0 | 3.2 | 0.00 | 0.00 | 0.00 | 78 | 1008.9 |
| 20260506081517 | 15 | 132 | 0.0 | 4.8 | 0.00 | 0.00 | 0.00 | 76 | 1008.9 |
| 20260506081014 | 15 | 206 | 3.2 | 6.4 | 0.00 | 0.00 | 0.00 | 73 | 1008.9 |
| 20260506080511 | 15 | 81 | 3.2 | 4.8 | 0.00 | 0.00 | 0.00 | 75 | 1008.9 |
| 20260506073455 | 15 | 106 | 0.0 | 3.2 | 0.00 | 0.00 | 0.00 | 79 | 1008.8 |
| 20260506072952 | 15 | 110 | 3.2 | 4.8 | 0.00 | 0.00 | 0.00 | 79 | 1008.9 |
| 20260506072449 | 15 | 50 | 0.0 | 4.8 | 0.00 | 0.00 | 0.00 | 75 | 1009.1 |
| 20260506071947 | 15 | 75 | 1.6 | 4.8 | 0.00 | 0.00 | 0.00 | 77 | 1009.0 |